This is the latest recevied weather packets stored in our database for station/object K2YYD-2. If no packets are shown the sender has not sent any weather packets the latest 10 day(s).
| Time | Temp. | Humidity | Pressure | Rain* | Wind** | Luminosity | Snow |
|---|---|---|---|---|---|---|---|
| 1777655054 | 15.56° C | 39% | 1008.1 hPa | 0 mm | - | 973 W/m² | - |
| 1777654933 | 15.56° C | 37% | 1008.1 hPa | 0 mm | - | 806 W/m² | - |
| 1777654811 | 15.56° C | 37% | 1008.2 hPa | 0 mm | - | 659 W/m² | - |
| 1777654691 | 15.56° C | 38% | 1008.2 hPa | 0 mm | - | 640 W/m² | - |
| 1777654571 | 15.56° C | 37% | 1008.3 hPa | 0 mm | - | 513 W/m² | - |
| 1777654448 | 16.11° C | 37% | 1008.3 hPa | 0 mm | - | 825 W/m² | - |
| 1777654328 | 16.11° C | 37% | 1008.3 hPa | 0 mm | - | 848 W/m² | - |
| 1777654208 | 16.11° C | 37% | 1008.4 hPa | 0 mm | - | 763 W/m² | - |
| 1777654089 | 16.11° C | 37% | 1008.4 hPa | 0 mm | - | 617 W/m² | - |
| 1777653968 | 16.11° C | 36% | 1008.5 hPa | 0 mm | - | 255 W/m² | - |
| 1777653848 | 16.11° C | 37% | 1008.5 hPa | 0 mm | - | 313 W/m² | - |
| 1777653725 | 16.11° C | 39% | 1008.5 hPa | 0 mm | - | 480 W/m² | - |
| 1777653606 | 16.67° C | 36% | 1008.4 hPa | 0 mm | - | 697 W/m² | - |
| 1777653486 | 16.67° C | 37% | 1008.5 hPa | 0 mm | - | 626 W/m² | - |
| 1777653365 | 16.67° C | 38% | 1008.5 hPa | 0 mm | - | 599 W/m² | - |
| 1777653245 | 16.67° C | 37% | 1008.5 hPa | 0 mm | - | 438 W/m² | - |
| 1777653126 | 16.67° C | 38% | 1008.5 hPa | 0 mm | - | 346 W/m² | - |
| 1777653006 | 16.11° C | 37% | 1008.5 hPa | 0 mm | - | 780 W/m² | - |
| 1777652885 | 16.11° C | 38% | 1008.5 hPa | 0 mm | - | 891 W/m² | - |
| 1777652766 | 16.11° C | 37% | 1008.5 hPa | 0 mm | - | 877 W/m² | - |
| 1777652646 | 15.56° C | 38% | 1008.5 hPa | 0 mm | - | 856 W/m² | - |
| 1777652526 | 15.56° C | 37% | 1008.5 hPa | 0 mm | - | 737 W/m² | - |
| 1777652405 | 15.56° C | 38% | 1008.5 hPa | 0 mm | - | 755 W/m² | - |
| 1777652286 | 15.56° C | 39% | 1008.6 hPa | 0 mm | - | 719 W/m² | - |
| 1777652165 | 15.56° C | 38% | 1008.5 hPa | 0 mm | - | 879 W/m² | - |
* Rain latest hour (hover to see other rain measurements)
** Current wind speed in m/s (hover to see current wind gust speed)